Weather Roundup
Issued by NWS Corpus Christi, TX

Home | Current Version | Previous Version | Text Only | Print | Product List | Glossary On
Versions: 1 2 3 4 5 6 7 8 9 10 11 12 13 14 15 16 17 18 19 20 21 22 23 24 25 26 27 28 29 30 31 32 33 34 35 36 37 38 39 40 41 42 43 44 45 46 47 48 49 50
000
ASUS44 KCRP 261310
HRRCRP

SOUTH TEXAS REGIONAL WEATHER ROUNDUP
NATIONAL WEATHER SERVICE CORPUS CHRISTI TX
800 AM CDT FRI MAY 26 2017


TXZ229>244-261400-
...CORPUS CHRISTI AREA OBSERVATIONS...

CITY           SKY/WX    TMP DP  RH WIND       PRES   REMARKS
CORPUS CHRISTI CLOUDY    80  75  84 S18       29.82R
NAS CORPUS CHR CLOUDY    82  77  84 S14       29.83R HX  90
ROCKPORT       CLOUDY    81  74  79 S8        29.83R
KINGSVILLE NAS CLOUDY    81  76  84 S13       29.81R
ALICE          CLOUDY    80  73  79 SE9       29.80R
ORANGE GROVE   CLOUDY    80  75  84 S12       29.82R
FALFURRIAS     CLOUDY    81  74  78 S15       29.80R
$$

...VICTORIA AREA OBSERVATIONS...

CITY           SKY/WX    TMP DP  RH WIND       PRES   REMARKS
VICTORIA       CLOUDY    80  73  79 S8        29.85R
BEEVILLE       CLOUDY    79  79 100 S9        29.83R
PLEASANTON     CLOUDY    77  73  87 SE5       29.83S
SAN ANTONIO    LGT RAIN  76  74  93 S10       29.86R
$$

...LAREDO AREA OBSERVATIONS...

CITY           SKY/WX    TMP DP  RH WIND       PRES   REMARKS
LAREDO         CLOUDY    79  74  84 SE12      29.79R
COTULLA        CLOUDY    80  73  79 SE9       29.80R
DEL RIO        CLOUDY    77  73  87 E8        29.80R
MCALLEN        CLOUDY    83  76  79 S17G26    29.79R HX  91
HEBBRONVILLE   CLOUDY    79  71  78 S12       29.81R
$$

...OTHER TEXAS OBSERVATIONS...

CITY           SKY/WX    TMP DP  RH WIND       PRES   REMARKS
BROWNSVILLE    MOSUNNY   83  76  79 S22G28    29.82R HX  91
HOUSTON        CLOUDY    77  71  82 S7        29.88R
COL. STATION   CLOUDY    77  72  84 S8        29.86R
AUSTIN         CLOUDY    79  72  79 S9        29.84R
WACO           MOSUNNY   77  71  82 S16       29.80R
FORT WORTH     PTSUNNY   79  71  76 S22       29.72R
WICHITA FALLS  MOSUNNY   76  64  66 SW17      29.67R
LUBBOCK        CLOUDY    66  24  20 NW14      29.86R
EL PASO        PTSUNNY   73  33  23 SW12      29.99R
$$

...MARINE OBSERVATIONS...

STATION/POSITION TIME  SKY/WX   TEMP    WIND        PRES    VSBY  WAVE   SWELL
                                AIR SEA DIR/SP/G                  HT/PER HT/PER
                 (UTC)          (F)     (DEG/KT/KT) (MB)    (MI)  (FT/S) (FT/S)
PORT ARANSAS     1200            79 79  160/ 20/ 23 1009.0R
BUOY 90 E PORT A 1250            79 78  150/ 17/ 19 1011.0R         5/ 6
BUOY 45 SE BAFFI 1250            80     160/ 21/ 25 1008.4R         7/ 6   2/14
BUOY 200 E PT IS 1150            80 80  150/ 16/ 17 1012.4          4/ 6
BUOY 15 E GALVES 1150            78 78  190/ 17/ 21 1011.4          5/ 6
$$



USA.gov is the U.S. government's official web portal to all federal, state and local government web resources and services.